Regional Weather Roundup
Issued by NWS

Current Version | Previous Version | Text Only | Print | Product List | Glossary On
Versions: 1 2 3 4 5 6 7 8 9 10 11 12 13 14 15 16 17 18 19 20 21 22 23 24 25 26 27 28 29 30
000
ASUS45 KGTF 181710
RWRMT
MONTANA HOURLY WEATHER ROUNDUP
NATIONAL WEATHER SERVICE GREAT FALLS MT
1100 AM MDT SAT APR 18 2015

NOTE: "FAIR" INDICATES FEW OR NO CLOUDS BELOW 12000 FEET WITH NO
SIGNIFICANT WEATHER AND/OR OBSTRUCTIONS TO VISIBILITY.

MTZ001>007-043-181800-
WEST OF THE DIVIDE

CITY           SKY/WX    TMP DP  RH WIND       PRES   REMARKS
KALISPELL      SUNNY     56  31  38 NE16      30.19R
MISSOULA       MOSUNNY   51  35  54 CALM      30.18F
BUTTE          SUNNY     50  29  44 VRB6      30.16F
DEER LODGE       N/A     54  34  47 NE3       30.19S
EUREKA           N/A     54  34  47 NW7       30.23S
HAMILTON         N/A     59  30  33 SE5       30.16R
LIBBY            N/A     55  28  35 CALM      30.21S
$$

MTZ008-052>055-181800-
SOUTHWEST MONTANA

CITY           SKY/WX    TMP DP  RH WIND       PRES   REMARKS
BOZEMAN        SUNNY     53  32  44 W7        30.13S
DILLON         SUNNY     53  26  35 N6        30.14F
$$

MTZ009-010-012-014-046-048-049-054-181800-
EAST SLOPES AND CENTRAL MONTANA

CITY           SKY/WX    TMP DP  RH WIND       PRES   REMARKS
CUT BANK       CLOUDY    36  33  89 NW15      30.29S WCI  27
GREAT FALLS    LGT SNOW  33  32  96 N18       30.26R VSB 1   WCI  22
MALMSTROM AFB  LGT SNOW  35  35 100 N16G22    30.27R WCI  25
HELENA         CLOUDY    48  31  51 N21G28    30.20R
$$

MTZ011-013-016-021-045-047-050-051-181800-
NORTH CENTRAL MONTANA

CITY           SKY/WX    TMP DP  RH WIND       PRES   REMARKS
HAVRE          CLOUDY    47  28  47 N20G26    30.19R
LEWISTOWN      CLOUDY    45  35  68 NW16G25   30.14R
FORT BENTON      N/A     41  34  75 NW21G28   30.26R
$$

MTZ017>020-022>042-056>058-061-062-181800-
EASTERN PLAINS

CITY           SKY/WX    TMP DP  RH WIND       PRES   REMARKS
BAKER          SUNNY     63  41  44 S10       29.97F
BILLINGS       MOSUNNY   63  26  24 N17G26    30.02S
GLASGOW        MOSUNNY   55  36  48 N29G37    30.00R
JORDAN           N/A     60  38  43 NW29G36   29.98R
LIVINGSTON     CLOUDY    55  29  36 NW5       30.09R
MILES CITY     SUNNY     63  36  36 W8        29.95S
SIDNEY         SUNNY     64  39  39 S13G18    29.92F
WOLF POINT     CLOUDY    63  34  33 NW15      29.93R
BIG TIMBER       N/A     59  30  33 SW15G22   30.06F
FORSYTH          N/A     61  36  39 NW10G17   29.97R
PLENTYWOOD       N/A     61  32  33 NW14G23   29.91R
POPLAR           N/A     63  34  34 W9        29.92S
$$

REGIONAL REPORTS...DAKOTAS

CITY           SKY/WX    TMP DP  RH WIND       PRES   REMARKS
WILLISTON      SUNNY     67  37  33 S16       29.91F
MINOT          SUNNY     64  25  22 S9        29.95F
DICKINSON      SUNNY     66  32  28 SW15      29.94F
BEACH          FAIR      64  34  32 S12G21    29.96F
CROSBY         FAIR      66  34  30 SW14G23   29.90S
WATFORD CITY   FAIR      66  34  30 SW14G22   29.92S
BISMARCK       CLOUDY    53  30  41 CALM      30.01F
GRAND FORKS    MOSUNNY   60  31  33 S7        30.05F
FARGO          MOSUNNY   66  29  24 SE13      30.03F
BUFFALO SD       N/A     57  41  55 S10       29.92F
RAPID CITY     LGT RAIN  50  44  80 NE13      29.97F
$$

REGIONAL REPORTS...WYOMING/IDAHO/WASHINGTON

CITY           SKY/WX    TMP DP  RH WIND       PRES   REMARKS
GILLETTE         N/A     53  41  63 NE5       29.98F
SHERIDAN       SUNNY     58  39  49 N5        29.99S
BUFFALO WY     MOSUNNY   58  33  39 N17G25    29.99F
CODY           SUNNY     57  34  41 N15G22    30.04S
YELLOWSTONE LA   N/A     47  19  33 VRB5      30.14S
IDAHO FALLS    SUNNY     56  28  34 N8        30.08F
SALMON         SUNNY     52  28  40 N5        30.16F
BOISE          SUNNY     63  35  35 NW22      30.11F
SPOKANE        MOSUNNY   57  20  23 N14G21    30.24F
$$

REGIONAL REPORTS...ALBERTA

CITY           SKY/WX    TMP DP  RH WIND       PRES   REMARKS
EDMONTON       MOSUNNY   46  28  49 NW18G30   30.20R
CALGARY        PTSUNNY   43  21  42 N18G25    30.28R
LETHBRIDGE     PTSUNNY   43  32  65 W18       30.30R
MEDICINE HAT   PTSUNNY   48  28  46 NW20G25   30.22R
$$

REGIONAL REPORTS...SASKATCHEWAN

CITY           SKY/WX    TMP DP  RH WIND       PRES   REMARKS
SWIFT CURRENT  PTSUNNY   46  32  57 NW29G37   30.06R
REGINA         PTSUNNY   54  39  58 NW16G28   29.96R
SASKATOON      PTSUNNY   46  34  61 NW25G35   29.98R
$$



USA.gov is the U.S. government's official web portal to all federal, state and local government web resources and services.